Date String (YYYY-MM-DD hh:mm:ss) UTC,Instrument flags,Ambient pressure (hPa),Sample flow (lpm),Bypass flow (lpm),Sample temperature (°C),Ambient temperature (°C),ASC tube jacket temperature (°C),LED temperature (°C),Box temperature (°C),Sample RH (%),Span deviation,Mass concentration (μg/m³),Mass concentration (μg/m³),Mass concentration (μg/m³)
DateTimeUTC,F1_M11,P_M11,Q1_M11,Q2_M11,T1_M11,T2_M11,T3_M11,T4_M11,T5_M11,U1_M11,ZSPAN_M11,X0_M11,X2_M11,X1_M11
2022-05-08 21:00:00,,0809.8,5.00,0.00,29.3,28.7,00.0,38.2,31.2,15.8,0000.0,0028.87,0009.47,0004.08
2022-05-08 21:01:00,,0809.7,5.00,0.00,29.3,28.7,00.0,38.2,31.2,15.9,0000.0,0028.68,0009.53,0004.06
2022-05-08 21:02:00,,0809.7,5.00,0.00,29.3,28.7,00.0,38.2,31.2,15.7,0000.0,0028.70,0009.58,0004.05
2022-05-08 21:03:00,,0809.7,5.01,0.00,29.4,28.7,00.0,38.2,31.2,15.8,0000.0,0028.22,0009.59,0004.05
2022-05-08 21:04:00,,0809.7,5.00,0.00,29.4,28.7,00.0,38.2,31.2,15.8,0000.0,0029.11,0009.61,0004.06
2022-05-08 21:05:00,,0809.7,5.00,0.00,29.4,28.7,00.0,38.2,31.2,15.9,0000.0,0030.21,0009.67,0004.07
2022-05-08 21:06:00,,0809.7,4.99,0.00,29.4,28.7,00.0,38.2,31.2,16.2,0000.0,0029.73,0009.61,0004.06
2022-05-08 21:07:00,,0809.7,4.99,0.00,29.4,28.7,00.0,38.3,31.2,15.8,0000.0,0029.53,0009.66,0004.06
2022-05-08 21:08:00,,0809.7,4.98,0.00,29.4,28.7,00.0,38.3,31.2,15.7,-001.5,0030.28,0009.63,0004.05
2022-05-08 21:09:00,,0809.6,5.00,0.00,29.4,28.8,00.0,38.3,31.2,15.7,-004.8,0030.02,0009.64,0004.05
2022-05-08 21:10:00,,0809.6,5.01,0.00,29.4,28.8,00.0,38.3,31.3,16.3,-004.0,0029.60,0009.65,0004.05
2022-05-08 21:11:00,,0809.5,5.00,0.00,29.4,28.8,00.0,38.3,31.3,16.3,-001.2,0029.91,0009.73,0004.04
2022-05-08 21:12:00,,0809.5,5.01,0.00,29.5,28.8,00.0,38.3,31.3,16.1,0000.9,0030.14,0009.72,0004.04
2022-05-08 21:13:00,,0809.4,5.00,0.00,29.5,28.8,00.0,38.3,31.3,15.7,-000.4,0029.82,0009.66,0004.03
2022-05-08 21:14:00,,0809.3,5.01,0.00,29.5,28.9,00.0,38.3,31.3,16.2,-001.5,0030.76,0009.66,0004.04
2022-05-08 21:15:00,,0809.2,4.99,0.00,29.5,28.9,00.0,38.4,31.3,16.1,-000.5,0030.69,0009.69,0004.05
2022-05-08 21:16:00,,0809.3,5.00,0.00,29.5,28.9,00.0,38.4,31.3,15.7,-000.3,0030.00,0009.72,0004.06
2022-05-08 21:17:00,,0809.2,4.99,0.00,29.5,28.9,00.0,38.4,31.4,15.8,0000.0,0030.45,0009.80,0004.07
2022-05-08 21:18:00,,0809.2,5.01,0.00,29.6,28.9,00.0,38.4,31.4,15.7,0000.0,0030.74,0009.85,0004.10
2022-05-08 21:19:00,,0809.2,5.00,0.00,29.6,28.9,00.0,38.4,31.4,15.8,0000.0,0030.57,0009.88,0004.11
2022-05-08 21:20:00,,0809.1,5.00,0.00,29.6,28.9,00.0,38.4,31.4,15.6,0000.0,0030.32,0009.83,0004.11
2022-05-08 21:21:00,,0809.0,5.01,0.00,29.6,28.9,00.0,38.4,31.4,15.8,0000.0,0030.03,0009.76,0004.11
2022-05-08 21:22:00,,0809.1,5.00,0.00,29.6,29.0,00.0,38.5,31.5,15.9,0000.0,0029.11,0009.60,0004.10
2022-05-08 21:23:00,,0809.2,5.01,0.00,29.6,29.0,00.0,38.5,31.5,15.9,0000.0,0029.56,0009.52,0004.11
2022-05-08 21:24:00,,0809.1,5.01,0.00,29.6,29.0,00.0,38.5,31.5,15.9,0000.0,0029.66,0009.55,0004.14
2022-05-08 21:25:00,,0809.0,4.99,0.00,29.7,29.0,00.0,38.5,31.5,15.8,0000.0,0029.66,0009.57,0004.15
2022-05-08 21:26:00,,0809.1,5.00,0.00,29.7,29.0,00.0,38.5,31.5,15.9,0000.0,0029.01,0009.59,0004.16
2022-05-08 21:27:00,,0809.1,5.01,0.00,29.7,29.1,00.0,38.5,31.6,16.0,0000.0,0029.02,0009.53,0004.14
2022-05-08 21:28:00,,0809.1,5.01,0.00,29.7,29.1,00.0,38.5,31.6,16.0,0000.0,0028.47,0009.49,0004.13
2022-05-08 21:29:00,,0809.1,5.00,0.00,29.7,29.1,00.0,38.5,31.5,15.6,0000.0,0028.23,0009.60,0004.13
2022-05-08 21:30:00,,0809.1,5.00,0.00,29.7,29.1,00.0,38.6,31.5,15.5,0000.0,0027.58,0009.57,0004.14
2022-05-08 21:31:00,,0809.1,5.01,0.00,29.7,29.1,00.0,38.6,31.5,15.7,0000.0,0028.50,0009.57,0004.14
2022-05-08 21:32:00,,0809.1,5.00,0.00,29.7,29.1,00.0,38.6,31.6,15.6,0000.0,0029.32,0009.64,0004.15
2022-05-08 21:33:00,,0809.0,5.00,0.00,29.7,29.1,00.0,38.6,31.6,15.6,0000.0,0029.87,0009.82,0004.16
2022-05-08 21:34:00,,0809.0,4.99,0.00,29.8,29.1,00.0,38.6,31.6,15.9,0000.0,0029.21,0009.81,0004.16
2022-05-08 21:35:00,,0809.0,5.00,0.00,29.8,29.1,00.0,38.6,31.6,16.2,0000.0,0029.29,0009.75,0004.15
2022-05-08 21:36:00,,0809.0,4.98,0.00,29.8,29.1,00.0,38.6,31.6,15.8,0000.0,0028.50,0009.73,0004.14
2022-05-08 21:37:00,,0808.9,5.00,0.00,29.8,29.1,00.0,38.6,31.6,15.7,0000.0,0028.23,0009.60,0004.13
2022-05-08 21:38:00,,0808.9,5.01,0.00,29.8,29.1,00.0,38.7,31.6,15.6,0000.0,0028.03,0009.55,0004.13
2022-05-08 21:39:00,,0808.9,5.01,0.00,29.8,29.2,00.0,38.7,31.6,15.6,0000.0,0028.01,0009.42,0004.12
2022-05-08 21:40:00,,0808.9,5.00,0.00,29.8,29.2,00.0,38.7,31.6,15.6,0000.0,0027.71,0009.37,0004.11
2022-05-08 21:41:00,,0808.9,5.00,0.00,29.8,29.2,00.0,38.7,31.6,15.7,0000.0,0028.50,0009.35,0004.09
2022-05-08 21:42:00,,0808.9,5.00,0.00,29.8,29.1,00.0,38.7,31.6,15.7,0000.0,0028.02,0009.33,0004.09
2022-05-08 21:43:00,,0808.9,5.01,0.00,29.8,29.1,00.0,38.7,31.6,15.7,0000.0,0028.74,0009.35,0004.08
2022-05-08 21:44:00,,0808.9,5.00,0.00,29.8,29.2,00.0,38.7,31.7,15.6,0000.0,0028.71,0009.24,0004.08
2022-05-08 21:45:00,,0808.9,5.00,0.00,29.8,29.2,00.0,38.7,31.7,15.7,0000.0,0029.70,0009.32,0004.08
2022-05-08 21:46:00,,0808.8,5.00,0.00,29.8,29.2,00.0,38.7,31.6,16.3,0000.0,0030.66,0009.44,0004.05
2022-05-08 21:47:00,,0808.7,5.00,0.00,29.9,29.2,00.0,38.7,31.7,15.9,0000.0,0031.24,0009.44,0004.04
2022-05-08 21:48:00,,0808.7,5.00,0.00,29.9,29.2,00.0,38.8,31.7,16.0,0000.0,0031.63,0009.47,0004.03
2022-05-08 21:49:00,,0808.7,5.00,0.00,29.9,29.2,00.0,38.8,31.7,15.6,0000.0,0031.77,0009.51,0004.03
2022-05-08 21:50:00,,0808.7,5.01,0.00,29.9,29.2,00.0,38.8,31.7,16.0,0000.0,0031.75,0009.68,0004.04
2022-05-08 21:51:00,,0808.7,5.01,0.00,29.9,29.2,00.0,38.8,31.7,15.7,0000.0,0031.28,0009.61,0004.04
2022-05-08 21:52:00,,0808.7,5.01,0.00,29.9,29.2,00.0,38.8,31.7,15.7,0000.0,0030.88,0009.71,0004.03
2022-05-08 21:53:00,,0808.7,5.00,0.00,29.9,29.3,00.0,38.8,31.7,15.8,0000.0,0031.35,0009.85,0004.05
2022-05-08 21:54:00,,0808.6,5.00,0.00,29.9,29.3,00.0,38.8,31.7,15.9,0000.0,0030.03,0009.77,0004.03
2022-05-08 21:55:00,,0808.6,5.00,0.00,30.0,29.3,00.0,38.8,31.7,15.5,0000.0,0030.51,0009.73,0004.04
2022-05-08 21:56:00,,0808.6,5.01,0.00,30.0,29.3,00.0,38.9,31.7,15.3,0000.0,0029.98,0009.78,0004.04
2022-05-08 21:57:00,,0808.6,4.99,0.00,30.0,29.3,00.0,38.9,31.8,15.4,0000.0,0028.58,0009.73,0004.05
2022-05-08 21:58:00,,0808.5,4.99,0.00,30.0,29.3,00.0,38.9,31.8,15.3,0000.0,0028.00,0009.73,0004.09
2022-05-08 21:59:00,,0808.5,5.00,0.00,30.0,29.3,00.0,38.9,31.8,15.5,0000.0,0028.38,0009.82,0004.10
